Zurück zum Katalog

TAURUS 1

AktivKommunikationVLEO
NORAD 66305·PAYLOAD·🇹🇷 Turkey
Dieser Satellitenname wurde noch nicht durch offizielle Quellen bestätigt.

Gestartet Nov 2, 2025 von Cape Canaveral Space Force Station

Loading…

Nächste Überflüge (nächste 24 Stunden)

TLE

AktuellSource: Space-Track

Epoche: Sep 14, 2026, 13:02 UTC

1 66305U 25248N   26257.54336436  .00014854  00000-0  50249-3 0  9992
2 66305  45.4210 347.9912 0008484 216.9562 143.0745 15.30546717 46157

Verfolge TAURUS 1 in Echtzeit mit AllMySat

Download on the App Store